Hourly Data Report for October 11, 2016

All times are specified in Local Standard Time (LST). Add 1 hour to adjust for Daylight Saving Time where and when it is observed.

OTTAWA INTL A
ONTARIO

45°19'00.000" N
75°40'00.000" W
114.90 m
6106001
71628
YOW

Download Data

Hourly Data (October 2016)
Hourly Data Report for October 11, 2016
Temp Definition
°C
Dew Point Temp Definition
°C
Rel Hum Definition
%
Wind Dir Definition
10's deg

Wind Spd Definition
km/h
Visibility Definition
km
Stn Press Definition
kPa
Hmdx Definition


Wind Chill Definition


Weather Definition


TIME
00:00 Legend Double Dagger 3.5 -0.2 77 18 9 24.1 101.57     LegendNANA
01:00 Legend Double Dagger 2.5 -0.1 83 19 10 24.1 101.60     Clear
02:00 Legend Double Dagger 2.2 0.3 87 20 8 24.1 101.58     LegendNANA
03:00 Legend Double Dagger 1.6 0.4 92 22 5 24.1 101.59     LegendNANA
04:00 Legend Double Dagger 0.6 -0.3 94 20 4 24.1 101.60     Clear
05:00 Legend Double Dagger 0.6 -0.3 94 18 6 24.1 101.62     LegendNANA
06:00 Legend Double Dagger 0.4 -0.3 95 17 7 24.1 101.62     LegendNANA
07:00 Legend Double Dagger 1.6 1.2 97 18 8 24.1 101.66     Clear
08:00 Legend Double Dagger 4.9 3.1 88 20 9 24.1 101.69     LegendNANA
09:00 Legend Double Dagger 9.1 3.5 68 20 8 24.1 101.71     LegendNANA
10:00 Legend Double Dagger 11.7 5.2 64 21 11 24.1 101.67     Clear
11:00 Legend Double Dagger 13.3 5.3 58 20 11 24.1 101.64     LegendNANA
12:00 Legend Double Dagger 15.0 5.6 53 15 5 24.1 101.56     LegendNANA
13:00 Legend Double Dagger 16.6 5.6 48 13 12 24.1 101.44     Clear
14:00 Legend Double Dagger 17.7 6.1 46 17 9 24.1 101.36     LegendNANA
15:00 Legend Double Dagger 18.2 4.1 39 21 9 24.1 101.31     LegendNANA
16:00 Legend Double Dagger 16.3 6.0 50 16 8 24.1 101.29     Mostly Cloudy
17:00 Legend Double Dagger 14.1 6.0 58 14 10 24.1 101.27     LegendNANA
18:00 Legend Double Dagger 12.8 5.3 60 15 9 24.1 101.26     LegendNANA
19:00 Legend Double Dagger 11.5 4.5 62 15 9 24.1 101.24     Cloudy
20:00 Legend Double Dagger 11.4 4.7 63 16 6 24.1 101.23     LegendNANA
21:00 Legend Double Dagger 11.3 3.9 60 16 8 24.1 101.22     LegendNANA
22:00 Legend Double Dagger 9.3 3.9 69 14 8 24.1 101.18     Cloudy
23:00 Legend Double Dagger 10.3 5.1 70 14 8 24.1 101.16     LegendNANA

Notes on Data Quality.

Legend

  • E = Estimated
  • M = Missing
  • NA = Not Available
  • ‡ = Partner data that is not subject to review by the National Climate Archives
Date modified: